Content
SEND FEEDBACK

Daily
Averages
Monthly
Summary
United States of America

CANNONVILLE, UTAH


Home > North America > United States > Utah
Elevation: 7584 feet     Latitude: 37 42N     Longitude: 112 09W

WEATHER
 
SELECT A DAY
Number of Records: 156,353;   Date Range: 1/3/95 - 9/30/14
 
SHARE

PRINT THIS DATA

[ ← Previous Day ]
WEATHER ALMANAC - JANUARY 3, 2013
[ Next Day → ]
[ °C ]   °F
Weather ElementAverageHighLow
Temperature-1.6 °F23 °F (2:53 pm)-17 °F (6:53 am)
Dewpoint-10.2 °F1.9 °F (11:53 am)-22 °F (6:53 am)
Humidity69.2 %86 % (1:53 am)35 % (2:53 pm)
Barometer30.55 in30.69 in (7:53 pm)30.43 in (2:53 am)
Wind Speed5.4 mph13.8 mph (7:53 am)
Weather ElementAverage
Visibility10 mi
Wind DirectionSSW (197.4 °)

Weather ElementTotal
Precipitation---
Heating Degree Days62 (Base 65)
Averaged from 23 records on January 3, 2013
WEATHER CONDITIONS BREAKOUT
WIND DIRECTION BREAKOUT
WEATHER BY HOUR - JANUARY 3, 2013
[ °C ]   °F
Local TimeTemperatureDewpointHumidityBarometerVisibilityWind DirectionWind SpeedGust SpeedPrecipitationEventsConditions
1:53 AM-15.0 °F-18.0 °F86 %30.46 in10.0 miWSW (240°)6.9 mphClear
2:53 AM-11.0 °F-16.1 °F78 %30.43 in10.0 miWSW (250°)4.6 mphClear
3:53 AM-16.1 °F-20.0 °F82 %30.48 in10.0 miWest (260°)4.6 mphClear
4:53 AM-15.0 °F-18.9 °F82 %30.48 in10.0 miWSW (250°)4.6 mphClear
5:53 AM-16.1 °F-20.9 °F79 %30.51 in10.0 miWest (260°)8.1 mphClear
6:53 AM-17.0 °F-22.0 °F78 %30.58 in10.0 miWest (260°)9.2 mphClear
7:53 AM-15.0 °F-20.0 °F78 %30.63 in10.0 miWest (280°)13.8 mphClear
8:53 AM-11.9 °F-16.1 °F82 %30.65 in10.0 miWSW (250°)6.9 mphClear
9:53 AM-2.0 °F-6.0 °F83 %30.63 in10.0 miWest (270°)4.6 mphClear
10:53 AM3.9 °F-2.9 °F73 %30.62 in10.0 miWest (260°)3.5 mphClear
11:53 AM10.9 °F1.9 °F67 %30.60 in10.0 miCalmClear
12:53 PM18.0 °F-0.9 °F44 %30.52 in10.0 miCalmClear
1:53 PM21.9 °F-0.9 °F37 %30.46 in10.0 miCalmClear
2:53 PM23.0 °F-0.9 °F35 %30.43 in10.0 miWSW (240°)3.5 mphClear
3:53 PM19.0 °F1.0 °F46 %30.49 in10.0 miCalmClear
4:53 PM7.0 °F-2.9 °F64 %30.57 in10.0 miCalmClear
5:53 PM0.0 °F-9.0 °F66 %30.63 in10.0 miWSW (240°)3.5 mphClear
6:53 PM-0.9 °F-9.0 °F69 %30.65 in10.0 miSSW (210°)5.8 mphClear
7:53 PM-8.0 °F-14.1 °F75 %30.69 in10.0 miWSW (240°)6.9 mphClear
8:53 PM-6.0 °F-11.9 °F75 %30.66 in10.0 miWSW (240°)6.9 mphClear
9:53 PM-2.0 °F-9.9 °F69 %30.57 in10.0 miWest (260°)10.4 mphClear
10:53 PM-2.0 °F-9.0 °F72 %30.54 in10.0 miWest (260°)6.9 mphClear
11:53 PM-2.0 °F-9.0 °F72 %30.48 in10.0 miWest (270°)12.7 mphClear
Hourly data recorded from KBCE, located miles away from Cannonville, Utah







STORIES FROM OUR PARTNERS